Orbital Elements at Epoch 2459000.5 (2020-May-31.0) TDB
Reference: JPL 23 (heliocentric ecliptic J2000)
Element | Value | Uncertainty (1-sigma) | Units |
e | .1142176995744857 | 3.4084e-08 | |
a | 2.319183332426419 | 7.9763e-09 | au |
q | 2.054291547305184 | 8.0436e-08 | au |
i | 6.033737104453705 | 4.1959e-06 | deg |
node | 272.3064585555102 | 4.2304e-05 | deg |
peri | 115.1210815789032 | 4.9161e-05 | deg |
M | 24.42977473591074 | 2.3594e-05 | deg |
tp | 2458912.957688389064 (2020-Mar-04.45768839) | 8.446e-05 | TDB |
period | 1290.03367900937 3.53 | 6.6552e-06 1.822e-08 | d yr |
n | .2790624817457848 | 1.4397e-09 | deg/d |
Q | 2.584075117547654 | 8.8873e-09 | au |
|
| | Orbit Determination Parameters
Additional Information
|